sat.trackr.live / text

‹ back to catalog

STARLINK-32688

NORAD 62193 · 2024-229B

PAYLOAD ACTIVE UNKNOWN

§ Identity

Operator
Country
US
Launch date
2024-12-04
Launch site
AFETR
Launch vehicle
Mass (kg)
RCS (m²)

Purposes: comms

External: N2YO · Heavens-Above · Gunter

§ Orbital elements

Epoch: 2026-05-24T21:13:31.664064Z

Period
94.27 min
Inclination
43.0021°
Eccentricity
0.0001982
Mean motion
15.27585283 rev/d
Perigee alt
481.7 km
Apogee alt
484.4 km
Semi-major
6,861.2 km
B*
3.8797e-4
RAAN
200.4772°
Arg perigee
284.8517°
Mean anomaly
75.2115°
Rev number
8,221

§ Raw data

STARLINK-326881 62193U 24229B   26144.88439426  .00010431  00000+0  38797-3 0  99962 62193  43.0021 200.4772 0001982 284.8517  75.2115 15.27585283 82210

JSON: /api/v1/satellites/62193 · /tle

For live sub-satellite position, see the globe view (requires WebGL).

§ Visibility from observer

Set your observer location to see the next 7 days of passes ≥ 10°. The values pass through the URL so the page stays shareable.

No JS? Fill the form by hand. The geolocation button needs JavaScript.